FENGYUN 1C DEB

Satellite information

Favourite Embed

Satellite Type and Status

DEBRISIN ORBIT

Key statistics

Satellite FENGYUN 1C DEB at a glance.

Uptime

9715

Days in orbit

Revolutions

≈ 15.0

Per day

Orbit

SSO

Sun Synchronous Orbit

Inclination

98.6

Latest

Satellite identification and parameters

Extended collection of information and parameters for FENGYUN 1C DEB.

Object identification

Identified? True

Debris? True

Object name: FENGYUN 1C DEB

International designator: 1999-025EGV

Object number (NORAD): 37427

Object ID (CCSDS): 37427

Country: PEOPLES REPUBLIC OF CHINA (PRC)

Current information (Y/N): Y

RCS size: SMALL

Orbital parameters

Period: 96.123 minutes

Inclination: 98.6211 deg

SMA: 6950.987 km

Apoapsis: 703.371 km

Periapsis: 442.333 km

RAAN: 129.6146 deg

Eccentricy: 0.01877711

Argument of periapsis: 294.8733 deg

Mean anomaly: 63.3068 deg

Mean motion: 14.98073242 rev/day

Mean motion (dot): 0.00007977 rev/day2

B* drag term: 0.00047252452 1/REarth

Two-line elements (TLE)

Creation date: Dec. 14, 2025, 3:07 a.m.

Reference frame: TEME

Reference center: EARTH

Epoch: Dec. 13, 2025, 3:30 p.m. UTC

TLE line 0: 0 FENGYUN 1C DEB

TLE line 1: 1 37427U 99025EGV 25347.64647468 .00007977 00000-0 47252-3 0 9997

TLE line 2: 2 37427 98.6211 129.6146 0187771 294.8733 63.3068 14.98073242603362

Live tracking on map

Real-time ground track for satellite FENGYUN 1C DEB.

In-orbit conjunctions

A list of the most updated potential collisions computed for object FENGYUN 1C DEB.

Target Orbit TCA Probability of collision Miss distance Type
FENGYUN 1C DEB SSO 2025-03-17 04:15:00 0.0001016628 111.0 (m) DEBRIS
CZ-2C R/B SSO 2024-08-07 07:40:15 0.0006794535 98.0 (m) ROCKET BODY

Associated space launch

Chinese polar orbiting meteorological satellite

FENGYUN 1C DEB was lifted into orbit during the mission ‘Long March 4B | Feng Yun 1C’, on board a Long March 4B space rocket.

The launch took place on May 10, 1999, 1:33 a.m. from Launch Complex 7.

For more information about the launch, click the button.

Launch to space Long March 4B | Feng Yun 1C
Long March 4B | Feng Yun 1C

Agency: N/A

Status: Launch Successful

Launch date: May 10, 1999, 1:33 a.m. UTC

Rocket: Long March 4B

Launch pad: Launch Complex 7

Location: Taiyuan Satellite Launch Center, People's Republic of China

...

Latest news about this satellite

There are no fresh news available about this satellite. Check back as we update our databases every day.


Newsletter sign-up

Weekly statistics, charts and insights to help you stay on top of the space industry.